GW3564 Weather Reports


Display with metric or nautical units.
time (UTC)temp
F
wind
direction
speed
MPH
gust
MPH
rain 1hr
in
rain 24hr
in
rain mn
in
humidity
%
barometer
mb
20260504050456 42 178 0.0 0.0 0.00 0.00 0.00 81 1017.9
20260504045953 42 178 0.0 0.0 0.00 0.00 0.00 80 1018.2
20260504045448 43 178 0.0 0.0 0.00 0.00 0.00 76 1018.0
20260504044945 43 182 0.0 0.0 0.00 0.00 0.00 77 1018.0
20260504044443 43 179 0.0 0.0 0.00 0.00 0.00 73 1018.0
20260504043940 44 186 0.0 0.0 0.00 0.00 0.00 76 1018.1
20260504043437 44 186 0.0 0.0 0.00 0.00 0.00 76 1017.9
20260504042934 44 186 0.0 0.0 0.00 0.00 0.00 74 1018.0
20260504042431 44 194 0.0 0.0 0.00 0.00 0.00 75 1017.9
20260504041927 44 186 0.0 0.0 0.00 0.00 0.00 73 1017.9
20260504041423 44 186 0.0 0.0 0.00 0.00 0.00 72 1017.6
20260504040919 43 186 0.0 0.0 0.00 0.00 0.00 73 1017.9
20260504040418 43 186 0.0 0.0 0.00 0.00 0.00 75 1018.0
20260504035913 43 188 0.0 0.0 0.00 0.00 0.00 71 1017.7
20260504035411 44 188 0.0 0.0 0.00 0.00 0.00 75 1017.8
20260504034907 44 175 0.0 0.0 0.00 0.00 0.00 72 1017.8
20260504034405 44 186 0.0 0.0 0.00 0.00 0.00 74 1017.9
20260504033902 44 186 0.0 0.0 0.00 0.00 0.00 70 1017.8
20260504033400 44 186 0.0 0.0 0.00 0.00 0.00 72 1017.8
20260504032856 44 186 0.0 0.0 0.00 0.00 0.00 67 1017.9
20260504032353 44 203 0.0 0.0 0.00 0.00 0.00 74 1017.7
20260504031850 44 186 0.0 0.0 0.00 0.00 0.00 73 1017.9
20260504031347 44 183 0.0 0.0 0.00 0.00 0.00 74 1017.9
20260504030843 44 178 0.0 0.0 0.00 0.00 0.00 70 1018.0
20260504030341 44 175 0.0 0.0 0.00 0.00 0.00 71 1017.8
20260504025837 44 170 0.0 0.0 0.00 0.00 0.00 70 1018.2
20260504025334 44 186 0.0 0.0 0.00 0.00 0.00 73 1018.0
20260504024830 45 183 0.0 0.0 0.00 0.00 0.00 71 1017.9
20260504024327 45 177 0.0 0.0 0.00 0.00 0.00 67 1017.9
20260504023824 45 186 0.0 0.0 0.00 0.00 0.00 66 1017.8
20260504023320 45 192 0.0 0.0 0.00 0.00 0.00 71 1017.8
20260504022816 45 175 0.0 0.0 0.00 0.00 0.00 70 1017.9
20260504022313 45 187 0.0 0.0 0.00 0.00 0.00 67 1018.0
20260504021809 45 183 0.0 0.0 0.00 0.00 0.00 69 1017.7
20260504021308 46 184 0.0 0.0 0.00 0.00 0.00 66 1017.9
20260504020804 46 186 0.0 0.0 0.00 0.00 0.00 66 1017.8
20260504020301 46 189 0.0 0.0 0.00 0.00 0.00 66 1017.8
20260504015757 46 182 0.0 0.0 0.00 0.00 0.00 67 1017.7
20260504015253 46 182 0.0 0.0 0.00 0.00 0.00 65 1017.4
20260504014749 46 183 0.0 0.0 0.00 0.00 0.00 67 1017.5
20260504014246 46 183 0.0 0.0 0.00 0.00 0.00 68 1017.3
20260504013744 47 182 0.0 0.0 0.00 0.00 0.00 61 1017.1
20260504013241 47 182 0.0 0.0 0.00 0.00 0.00 62 1017.5
20260504012737 48 186 0.0 0.0 0.00 0.00 0.00 64 1017.5
20260504012235 48 186 0.0 0.0 0.00 0.00 0.00 60 1017.3
20260504011732 48 183 0.0 0.0 0.00 0.00 0.00 61 1017.3
20260504011229 48 183 0.0 0.0 0.00 0.00 0.00 63 1017.3
20260504010725 48 182 0.0 0.0 0.00 0.00 0.00 62 1017.2
20260504010220 48 178 0.0 0.0 0.00 0.00 0.00 57 1017.0
20260504005717 49 188 0.0 0.0 0.00 0.00 0.00 57 1017.0
20260504005214 49 187 0.0 0.0 0.00 0.00 0.00 58 1016.9
20260504004712 49 187 0.0 0.0 0.00 0.00 0.00 60 1016.9
20260504004209 50 188 0.0 0.0 0.00 0.00 0.00 60 1016.9
20260504003706 51 191 0.0 0.0 0.00 0.00 0.00 57 1016.9
20260504003202 51 178 0.0 0.0 0.00 0.00 0.00 50 1016.7
20260504002659 52 186 0.0 0.0 0.00 0.00 0.00 53 1016.9
20260504002156 52 191 0.0 0.0 0.00 0.00 0.00 58 1016.9
20260504001654 53 177 0.0 0.0 0.00 0.00 0.00 51 1016.8
20260504001150 54 196 0.0 0.0 0.00 0.00 0.00 46 1016.9
20260504000647 54 182 0.0 0.0 0.00 0.00 0.00 46 1016.5
20260504000145 54 176 0.0 1.0 0.00 0.00 0.00 42 1016.4
20260503235643 55 190 0.0 0.0 0.00 0.00 0.00 46 1016.9
20260503235139 56 181 0.0 0.0 0.00 0.00 0.00 45 1016.7
20260503234637 57 181 0.0 0.0 0.00 0.00 0.00 44 1016.5
20260503234130 59 187 0.0 0.0 0.00 0.00 0.00 41 1016.5
20260503233627 61 190 0.0 0.0 0.00 0.00 0.00 34 1016.4
20260503233122 61 190 0.0 0.0 0.00 0.00 0.00 33 1016.3
20260503232619 61 192 0.0 0.0 0.00 0.00 0.00 32 1016.5
20260503232117 62 105 1.0 2.0 0.00 0.00 0.00 29 1016.3
20260503231614 61 225 1.0 2.0 0.00 0.00 0.00 27 1016.1
20260503231111 61 203 1.0 1.0 0.00 0.00 0.00 28 1016.4
20260503230608 61 219 2.0 3.0 0.00 0.00 0.00 27 1016.2
20260503230105 61 230 4.0 5.0 0.00 0.00 0.00 28 1016.5
20260503225603 62 209 1.0 1.0 0.00 0.00 0.00 26 1016.2
20260503225057 61 256 2.0 2.0 0.00 0.00 0.00 28 1016.1
20260503224555 62 249 2.0 2.0 0.00 0.00 0.00 28 1016.5
20260503224052 62 190 1.0 2.0 0.00 0.00 0.00 28 1016.4
20260503223550 63 198 0.0 1.0 0.00 0.00 0.00 28 1016.2
20260503223045 63 195 1.0 1.0 0.00 0.00 0.00 26 1016.3
20260503222544 62 199 1.0 1.0 0.00 0.00 0.00 31 1016.4
20260503222041 62 238 3.0 3.0 0.00 0.00 0.00 26 1016.5
20260503221539 63 238 1.0 2.0 0.00 0.00 0.00 28 1016.7
20260503221036 62 246 2.0 2.0 0.00 0.00 0.00 28 1016.5
20260503220532 62 202 1.0 1.0 0.00 0.00 0.00 26 1016.4
20260503220029 61 238 2.0 2.0 0.00 0.00 0.00 28 1016.7
20260503215527 61 187 1.0 2.0 0.00 0.00 0.00 27 1016.8
20260503215024 61 205 1.0 1.0 0.00 0.00 0.00 30 1016.5
20260503214522 61 187 0.0 0.0 0.00 0.00 0.00 30 1016.7
20260503214018 61 228 2.0 2.0 0.00 0.00 0.00 29 1016.8
20260503213516 61 213 1.0 2.0 0.00 0.00 0.00 31 1016.8
20260503213013 61 86 1.0 2.0 0.00 0.00 0.00 33 1016.9
20260503212510 60 182 0.0 1.0 0.00 0.00 0.00 34 1016.8
20260503212008 60 260 1.0 1.0 0.00 0.00 0.00 32 1016.9
20260503211505 60 302 2.0 2.0 0.00 0.00 0.00 31 1017.0
20260503211000 60 216 1.0 1.0 0.00 0.00 0.00 31 1016.9
20260503210457 60 219 1.0 2.0 0.00 0.00 0.00 30 1017.0
20260503205952 61 245 2.0 2.0 0.00 0.00 0.00 31 1017.3
20260503205449 60 242 2.0 2.0 0.00 0.00 0.00 30 1017.1
20260503204945 61 268 3.0 3.0 0.00 0.00 0.00 32 1017.2
20260503204443 61 205 1.0 2.0 0.00 0.00 0.00 32 1016.9
20260503203939 60 273 2.0 2.0 0.00 0.00 0.00 30 1017.2
20260503203437 59 215 1.0 2.0 0.00 0.00 0.00 33 1017.4
20260503202933 59 212 1.0 1.0 0.00 0.00 0.00 32 1017.5
20260503202432 60 254 4.0 6.0 0.00 0.00 0.00 31 1017.4
20260503201930 59 50 3.0 3.0 0.00 0.00 0.00 33 1017.6
20260503201427 59 336 4.0 7.0 0.00 0.00 0.00 34 1017.6
20260503200924 59 245 3.0 6.0 0.00 0.00 0.00 32 1017.6
20260503200420 60 239 2.0 2.0 0.00 0.00 0.00 34 1017.5
20260503195917 59 228 3.0 3.0 0.00 0.00 0.00 30 1017.7
20260503195415 59 216 4.0 6.0 0.00 0.00 0.00 32 1017.6
20260503194911 59 309 3.0 5.0 0.00 0.00 0.00 33 1017.8
20260503194408 59 196 2.0 3.0 0.00 0.00 0.00 33 1018.0
20260503193903 59 314 5.0 7.0 0.00 0.00 0.00 32 1017.9
20260503193359 59 274 5.0 7.0 0.00 0.00 0.00 32 1018.0
20260503192855 58 186 2.0 2.0 0.00 0.00 0.00 31 1018.1
20260503192350 58 197 2.0 2.0 0.00 0.00 0.00 31 1018.2
20260503191847 58 274 3.0 3.0 0.00 0.00 0.00 32 1018.4
20260503191345 59 220 2.0 2.0 0.00 0.00 0.00 33 1018.6
20260503190841 58 244 2.0 2.0 0.00 0.00 0.00 33 1018.4
20260503190338 57 180 1.0 2.0 0.00 0.00 0.00 35 1018.6
20260503185835 58 261 4.0 5.0 0.00 0.00 0.00 32 1018.8
20260503185331 58 245 3.0 5.0 0.00 0.00 0.00 34 1018.8
20260503184826 58 139 0.0 1.0 0.00 0.00 0.00 36 1018.6
20260503184322 57 241 1.0 2.0 0.00 0.00 0.00 35 1018.8
20260503183818 57 299 5.0 6.0 0.00 0.00 0.00 38 1018.9
20260503183315 56 204 2.0 3.0 0.00 0.00 0.00 35 1018.8
20260503182812 57 262 4.0 5.0 0.00 0.00 0.00 35 1019.1
20260503182312 57 89 2.0 2.0 0.00 0.00 0.00 36 1019.0
20260503181808 58 224 5.0 6.0 0.00 0.00 0.00 34 1019.4
20260503181306 56 188 1.0 1.0 0.00 0.00 0.00 35 1019.4
20260503180802 56 278 3.0 5.0 0.00 0.00 0.00 35 1019.4
20260503180300 57 263 2.0 3.0 0.00 0.00 0.00 34 1019.3
20260503175755 56 239 2.0 2.0 0.00 0.00 0.00 35 1019.4
20260503175254 56 272 2.0 3.0 0.00 0.00 0.00 37 1019.4
20260503174754 55 225 2.0 2.0 0.00 0.00 0.00 36 1019.6
20260503174253 55 266 5.0 9.0 0.00 0.00 0.00 38 1019.8
20260503173748 55 254 3.0 3.0 0.00 0.00 0.00 39 1019.4
20260503173244 55 290 4.0 5.0 0.00 0.00 0.00 41 1019.7
20260503172741 56 319 3.0 5.0 0.00 0.00 0.00 39 1019.4
20260503172238 54 227 3.0 3.0 0.00 0.00 0.00 38 1019.8
20260503171735 55 211 1.0 1.0 0.00 0.00 0.00 39 1019.8
20260503171232 55 269 1.0 1.0 0.00 0.00 0.00 40 1019.8
20260503170729 54 257 3.0 3.0 0.00 0.00 0.00 36 1019.9
20260503170226 53 247 2.0 3.0 0.00 0.00 0.00 36 1020.2
20260503160147 51 236 4.0 5.0 0.00 0.00 0.00 44 1020.5
20260503150618 49 57 3.0 3.0 0.00 0.00 0.00 48 1021.0
20260503150114 48 56 3.0 5.0 0.00 0.00 0.00 49 1021.3
20260503131007 43 229 3.0 3.0 0.00 0.00 0.00 62 1021.0
20260503130505 42 266 2.0 2.0 0.00 0.00 0.00 66 1020.9
20260503110400 37 226 2.0 3.0 0.00 0.00 0.00 76 1019.4
20260503090252 38 196 1.0 1.0 0.00 0.00 0.00 74 1017.8
20260503081225 38 224 0.0 1.0 0.00 0.00 0.00 75 1017.4
20260503080720 38 197 1.0 1.0 0.00 0.00 0.00 76 1017.5
20260503080218 37 249 1.0 1.0 0.00 0.00 0.00 76 1017.5
20260503072654 37 212 0.0 0.0 0.00 0.00 0.00 79 1017.2
20260503072151 37 187 0.0 1.0 0.00 0.00 0.00 80 1017.1
20260503071648 35 188 1.0 2.0 0.00 0.00 0.00 81 1017.0
20260503071145 35 193 1.0 1.0 0.00 0.00 0.00 88 1017.0
20260503070642 35 199 0.0 0.0 0.00 0.00 0.00 89 1017.0
20260503070140 35 198 0.0 0.0 0.00 0.00 0.00 89 1017.1